EW0294 Weather Reports


time (UTC)temp
F
wind
direction
speed
knots
gust
knots
rain 1hr
in
rain 24hr
in
rain mn
in
humidity
%
barometer
mb
20260504211502 62 100 0.0 4.3 0.00 0.03 0.03 52 1004.1
20260504210001 61 9 0.0 3.5 0.00 0.03 0.03 54 1004.2
20260504204501 61 319 1.7 5.2 0.00 0.03 0.03 52 1004.1
20260504203105 61 344 1.7 4.3 0.00 0.03 0.03 53 1004.1
20260504201559 60 338 0.9 5.2 0.00 0.03 0.03 54 1004.0
20260504200103 62 316 0.9 5.2 0.00 0.03 0.03 51 1004.0
20260504194605 62 292 0.9 7.0 0.00 0.03 0.03 53 1004.0
20260504193100 61 323 2.6 8.7 0.00 0.03 0.03 52 1003.8
20260504191612 61 321 1.7 8.7 0.00 0.03 0.03 53 1003.9
20260504190056 61 318 2.6 6.1 0.00 0.03 0.03 53 1003.9
20260504184554 61 198 2.6 5.2 0.00 0.03 0.03 53 1003.8
20260504183055 61 226 1.7 5.2 0.00 0.03 0.03 55 1003.9
20260504181558 60 222 2.6 7.8 0.00 0.03 0.03 55 1004.0
20260504180051 60 45 0.9 8.7 0.00 0.03 0.03 59 1004.0
20260504174550 59 275 1.7 7.0 0.00 0.03 0.03 58 1004.1
20260504173049 57 284 2.6 11.3 0.00 0.03 0.03 61 1004.3
20260504171551 57 288 0.0 6.1 0.00 0.03 0.03 65 1004.4
20260504100104 28 300 0.0 0.0 0.00 0.00 0.00 87 1006.6
20260504090106 29 300 0.0 1.7 0.00 0.00 0.00 86 1006.1
20260504081552 30 300 0.0 0.0 0.00 0.00 0.00 84 1006.1
20260504050022 36 332 0.0 0.0 0.00 0.00 0.00 70 1005.8
20260504044523 36 332 0.0 0.9 0.00 0.01 0.00 69 1005.8
20260504043025 37 332 0.0 0.0 0.00 0.01 0.00 67 1005.9
20260504041516 38 332 0.0 0.0 0.00 0.01 0.00 65 1005.7
20260504040014 39 332 0.9 2.6 0.00 0.01 0.00 64 1005.7
20260504034509 39 333 0.0 0.0 0.00 0.01 0.01 62 1005.4
20260504033011 40 333 0.0 1.7 0.00 0.01 0.01 60 1005.5
20260504031506 41 333 0.0 0.0 0.00 0.01 0.01 58 1005.5
20260504030008 42 333 0.0 0.9 0.00 0.01 0.01 57 1005.4
20260504024505 43 333 0.0 0.0 0.00 0.01 0.01 55 1005.3
20260504023004 43 333 0.0 2.6 0.00 0.01 0.01 54 1005.3
20260504021506 44 349 1.7 6.1 0.00 0.01 0.01 53 1005.3
20260504020004 44 347 1.7 3.5 0.00 0.02 0.01 53 1005.2
20260504014505 44 333 1.7 3.5 0.00 0.02 0.01 52 1005.2
20260504013004 44 348 1.7 4.3 0.00 0.02 0.01 51 1005.1
20260504011508 45 333 0.9 5.2 0.00 0.02 0.01 51 1005.0
20260504010002 45 329 0.0 2.6 0.00 0.03 0.01 49 1004.9
20260504004502 46 344 0.9 5.2 0.00 0.03 0.01 48 1004.7
20260504003000 47 5 0.9 4.3 0.00 0.03 0.01 47 1004.4
20260504001608 47 322 1.7 5.2 0.00 0.03 0.01 47 1004.3
20260504000128 47 347 0.9 3.5 0.00 0.03 0.01 47 1004.1
20260503234600 47 18 0.0 8.7 0.00 0.05 0.01 46 1003.9
20260503233059 48 323 2.6 6.1 0.00 0.05 0.01 44 1003.7
20260503231559 48 311 2.6 6.1 0.00 0.05 0.01 44 1003.7
20260503224557 49 348 2.6 8.7 0.00 0.05 0.01 42 1003.4
20260503223057 49 288 0.9 5.2 0.00 0.05 0.01 43 1003.3
20260503221556 50 350 1.7 9.6 0.00 0.05 0.01 42 1003.1
20260503220114 50 340 1.7 7.8 0.00 0.05 0.01 41 1002.8
20260503214556 51 316 2.6 7.8 0.00 0.05 0.01 41 1002.7
20260503213057 51 312 1.7 7.8 0.00 0.05 0.01 40 1002.6